EW7070 Weather Reports


time (UTC)temp
F
wind
direction
speed
knots
gust
knots
rain 1hr
in
rain 24hr
in
rain mn
in
humidity
%
barometer
mb
20260902133140 63 357 2.6 7.0 0.00 0.00 0.00 84 1019.7
20260902132846 62 271 2.6 6.1 0.00 0.00 0.00 86 1019.5
20260902132318 62 308 2.6 7.0 0.00 0.00 0.00 85 1019.5
20260902131530 62 340 2.6 7.0 0.00 0.00 0.00 86 1019.7
20260902131028 61 337 2.6 7.0 0.00 0.00 0.00 88 1019.7
20260902130527 61 283 3.5 7.0 0.00 0.00 0.00 87 1019.8
20260902130028 60 20 3.5 7.0 0.00 0.00 0.00 87 1019.8
20260902125500 60 293 2.6 7.0 0.00 0.00 0.00 87 1019.8
20260902124933 60 264 2.6 7.0 0.00 0.05 0.00 88 1020.0
20260902124426 60 328 2.6 7.0 0.00 0.05 0.00 88 1020.0
20260902123926 60 324 3.5 7.0 0.00 0.05 0.00 88 1020.0
20260902123424 60 264 2.6 7.0 0.00 0.05 0.00 88 1019.9
20260902122924 60 339 2.6 6.1 0.00 0.05 0.00 88 1020.1
20260902122422 60 312 1.7 6.1 0.00 0.05 0.00 89 1020.2
20260902121922 60 320 2.6 8.7 0.00 0.05 0.00 92 1020.2
20260902121421 60 304 3.5 8.7 0.00 0.05 0.00 93 1020.1
20260902121126 59 329 1.7 7.0 0.00 0.05 0.00 95 1019.9
20260902120329 58 283 0.9 6.1 0.00 0.05 0.00 97 1019.7
20260902115826 58 204 0.0 0.9 0.00 0.05 0.00 98 1019.7
20260902115258 57 152 0.0 1.7 0.00 0.05 0.00 99 1019.7
20260902114756 57 133 0.0 1.7 0.00 0.05 0.00 99 1019.5
20260902114528 56 129 0.0 1.7 0.00 0.05 0.00 99 1019.5
20260902113757 56 153 0.0 1.7 0.00 0.05 0.00 99 1019.6
20260902113254 56 114 0.0 1.7 0.00 0.05 0.00 99 1019.7
20260902112753 55 112 0.0 0.0 0.00 0.05 0.00 99 1019.5
20260902112515 55 177 0.0 0.9 0.00 0.05 0.00 99 1019.6
20260902111743 54 145 0.0 0.9 0.00 0.05 0.00 99 1019.5
20260902111217 54 60 0.0 0.0 0.00 0.05 0.00 99 1019.5
20260902110647 53 70 0.0 0.0 0.00 0.05 0.00 99 1019.5
20260902110121 52 222 0.0 0.0 0.00 0.05 0.00 99 1019.3
20260902105547 51 222 0.0 0.0 0.00 0.05 0.00 99 1019.3
20260902105021 51 222 0.0 0.0 0.00 0.05 0.00 98 1019.4
20260902104454 50 222 0.0 0.0 0.00 0.06 0.00 98 1019.3
20260902103953 49 222 0.0 0.0 0.00 0.06 0.00 98 1019.2
20260902103450 48 222 0.0 0.0 0.00 0.06 0.00 98 1019.2
20260902102948 48 222 0.0 0.0 0.00 0.06 0.00 98 1019.1
20260902102716 47 222 0.0 0.0 0.00 0.06 0.00 98 1019.1
20260902102215 47 222 0.0 0.0 0.00 0.06 0.00 97 1019.1
20260902101418 47 222 0.0 0.0 0.00 0.06 0.00 97 1019.1
20260902100917 47 222 0.0 0.0 0.00 0.06 0.00 97 1019.0
20260902100416 47 222 0.0 0.0 0.00 0.06 0.00 97 1019.0
20260902095924 47 222 0.0 0.0 0.00 0.06 0.00 97 1018.9
20260902095916 47 222 0.0 0.0 0.00 0.06 0.00 97 1019.0
20260902095143 47 168 0.0 0.0 0.00 0.06 0.00 97 1018.8
20260902094410 47 168 0.0 0.0 0.00 0.06 0.00 97 1018.8
20260902093909 47 168 0.0 0.0 0.00 0.06 0.00 97 1018.8
20260902093407 47 168 0.0 0.0 0.00 0.06 0.00 97 1018.7
20260902092855 47 168 0.0 0.0 0.00 0.06 0.00 97 1018.6
20260902092849 47 168 0.0 0.0 0.00 0.06 0.00 97 1018.5
20260902092229 48 168 0.0 0.0 0.00 0.06 0.00 97 1018.3
20260902092119 48 168 0.0 0.0 0.00 0.06 0.00 97 1018.4
20260902090839 48 168 0.0 0.0 0.00 0.06 0.00 97 1018.3
20260902090333 48 168 0.0 0.0 0.00 0.06 0.00 97 1018.1
20260902085807 48 168 0.0 0.0 0.00 0.06 0.00 97 1018.0
20260902085254 49 168 0.0 0.0 0.00 0.06 0.00 97 1018.0
20260902084753 49 168 0.0 0.0 0.00 0.06 0.00 97 1017.8
20260902084240 48 168 0.0 0.0 0.00 0.06 0.00 97 1017.8
20260902083737 48 114 0.0 0.0 0.00 0.06 0.00 97 1017.7
20260902083234 48 114 0.0 0.0 0.00 0.06 0.00 96 1017.6
20260902082733 49 114 0.0 0.0 0.00 0.06 0.00 96 1017.8
20260902082210 49 114 0.0 0.0 0.00 0.06 0.00 96 1017.7
20260902081700 49 114 0.0 0.0 0.00 0.06 0.00 96 1017.7
20260902081426 49 115 0.0 0.0 0.00 0.06 0.00 96 1017.9
20260902080636 49 114 0.0 0.0 0.00 0.07 0.00 96 1017.8
20260902080106 49 115 0.0 0.0 0.00 0.07 0.00 96 1017.7
20260902075549 50 114 0.0 0.0 0.00 0.07 0.00 96 1017.6
20260902075047 50 114 0.0 0.0 0.00 0.07 0.00 96 1017.6
20260902075025 50 114 0.0 0.0 0.00 0.07 0.00 96 1017.5
20260902074020 50 114 0.0 0.0 0.00 0.07 0.00 96 1017.6
20260902073521 51 114 0.0 0.0 0.00 0.07 0.00 97 1017.7
20260902073016 51 114 0.0 0.0 0.00 0.07 0.00 97 1017.6
20260902072446 51 114 0.0 0.0 0.00 0.07 0.00 97 1017.7
20260902071950 51 114 0.0 0.0 0.00 0.07 0.00 96 1017.7
20260902071420 51 114 0.0 0.0 0.00 0.07 0.00 96 1017.8
20260902070910 51 114 0.0 0.0 0.00 0.07 0.00 95 1017.7
20260902070400 51 114 0.0 0.0 0.00 0.07 0.00 95 1017.8
20260902065859 51 114 0.0 0.0 0.00 0.07 0.00 95 1017.8
20260902065629 51 114 0.0 0.0 0.00 0.07 0.00 95 1017.8
20260902065126 51 115 0.0 0.0 0.00 0.07 0.00 95 1017.9
20260902065006 51 114 0.0 0.0 0.00 0.07 0.00 95 1017.8
20260902063853 52 115 0.0 0.0 0.00 0.07 0.00 95 1017.8
20260902063352 52 114 0.0 0.0 0.00 0.07 0.00 95 1018.1
20260902062850 52 114 0.0 0.0 0.00 0.07 0.00 95 1018.1
20260902062351 52 114 0.0 0.0 0.00 0.07 0.00 95 1018.0
20260902061850 53 115 0.0 0.0 0.00 0.07 0.00 95 1018.0
20260902061351 53 114 0.0 0.0 0.00 0.07 0.00 95 1018.1
20260902060825 53 114 0.0 0.0 0.00 0.07 0.00 95 1018.0
20260902060528 53 114 0.0 0.0 0.00 0.07 0.00 95 1018.0
20260902055735 54 114 0.0 0.0 0.00 0.07 0.00 95 1018.0
20260902055234 54 114 0.0 0.0 0.00 0.07 0.00 96 1018.0
20260902055002 54 114 0.0 0.0 0.00 0.07 0.00 95 1018.0
20260902054230 55 114 0.0 0.0 0.00 0.07 0.00 96 1018.1
20260902054001 55 114 0.0 0.0 0.00 0.07 0.00 96 1018.1
20260902053224 55 114 0.0 0.0 0.00 0.07 0.00 96 1018.1
20260902052657 55 114 0.0 0.0 0.00 0.07 0.00 96 1018.3
20260902052156 55 114 0.0 0.0 0.00 0.07 0.00 96 1018.4
20260902051656 55 114 0.0 0.0 0.00 0.07 0.00 96 1018.5
20260902051147 55 114 0.0 0.0 0.00 0.07 0.00 96 1018.6
20260902051140 55 114 0.0 0.0 0.00 0.07 0.00 96 1018.5
20260902050113 55 114 0.0 0.0 0.00 0.07 0.00 96 1018.5
20260902045546 55 114 0.0 0.0 0.00 0.07 0.00 96 1018.6
20260902045030 55 114 0.0 0.0 0.00 0.07 0.00 96 1018.7
20260902044526 55 114 0.0 0.0 0.00 0.07 0.00 96 1018.6
20260902044023 55 114 0.0 0.0 0.00 0.07 0.00 96 1018.7
20260902043518 55 114 0.0 0.0 0.00 0.07 0.00 95 1018.7
20260902043010 55 114 0.0 0.0 0.00 0.07 0.00 95 1018.6
20260902042508 55 114 0.0 0.0 0.00 0.07 0.00 94 1018.5
20260902041935 55 114 0.0 0.0 0.00 0.07 0.00 94 1018.5
20260902041424 56 114 0.0 0.0 0.00 0.07 0.00 93 1018.5
20260902040912 56 114 0.0 0.0 0.00 0.07 0.00 92 1018.5
20260902040411 56 114 0.0 0.0 0.00 0.07 0.00 92 1018.6
20260902035844 56 114 0.0 0.0 0.00 0.07 0.00 93 1018.6
20260902035320 56 114 0.0 0.0 0.00 0.07 0.00 93 1018.6
20260902035038 57 114 0.0 0.0 0.00 0.07 0.00 93 1018.6
20260902034307 57 115 0.0 0.0 0.00 0.07 0.00 93 1018.7
20260902033804 57 114 0.0 0.0 0.00 0.07 0.00 93 1018.7
20260902033238 57 114 0.0 0.0 0.00 0.07 0.00 93 1018.7
20260902032942 58 114 0.0 0.0 0.00 0.07 0.00 94 1018.6
20260902032142 58 114 0.9 2.6 0.00 0.07 0.00 94 1018.6
20260902031639 58 114 0.9 2.6 0.00 0.07 0.00 94 1018.6
20260902031138 58 96 0.0 1.7 0.00 0.07 0.00 95 1018.7
20260902030633 58 187 0.0 0.9 0.00 0.07 0.00 95 1018.7
20260902030354 58 172 0.0 0.9 0.00 0.07 0.00 95 1018.8
20260902025614 58 172 0.0 0.9 0.00 0.07 0.07 95 1018.9
20260902025116 58 177 0.0 0.9 0.00 0.07 0.07 95 1018.9
20260902024549 58 135 0.0 0.9 0.00 0.07 0.07 95 1018.8
20260902024044 58 135 0.0 0.9 0.00 0.07 0.07 95 1018.8
20260902023542 58 135 0.0 2.6 0.00 0.07 0.07 95 1018.8
20260902023017 58 135 0.0 2.6 0.00 0.07 0.07 95 1018.7
20260902022455 58 133 0.9 3.5 0.00 0.07 0.07 96 1018.8
20260902021930 58 97 0.9 3.5 0.00 0.07 0.07 96 1018.9
20260902021403 58 99 0.0 2.6 0.00 0.07 0.07 96 1018.8
20260902021115 59 112 0.0 0.0 0.00 0.07 0.07 97 1018.8
20260902020318 59 112 0.0 0.0 0.00 0.07 0.07 97 1018.8
20260902015813 59 112 0.0 2.6 0.00 0.07 0.07 97 1018.7
20260902015312 59 112 0.9 3.5 0.00 0.07 0.07 97 1018.6
20260902015043 59 120 1.7 4.3 0.00 0.07 0.07 97 1018.5
20260902014245 59 102 0.9 4.3 0.00 0.07 0.07 97 1018.6
20260902013727 59 118 0.0 0.0 0.00 0.07 0.07 98 1018.6
20260902013230 59 128 0.0 0.0 0.00 0.07 0.07 97 1018.6
20260902012702 59 128 0.0 0.0 0.00 0.07 0.07 97 1018.6
20260902012203 58 128 0.0 0.0 0.00 0.07 0.07 97 1018.5
20260902011650 58 128 0.0 0.9 0.00 0.07 0.07 97 1018.5
20260902011145 58 58 0.0 0.9 0.00 0.07 0.07 97 1018.4
20260902010918 58 58 0.0 0.0 0.00 0.07 0.07 96 1018.2
20260902010142 58 58 0.0 0.0 0.00 0.07 0.07 96 1018.2
20260902005642 58 58 0.0 0.0 0.00 0.07 0.07 96 1017.9
20260902005410 58 58 0.0 0.0 0.00 0.07 0.07 95 1018.0
20260902004641 58 58 0.0 0.0 0.00 0.07 0.07 96 1017.9
20260902004347 58 58 0.0 0.0 0.00 0.07 0.07 96 1017.9
20260902003556 58 58 0.0 0.0 0.00 0.07 0.07 96 1017.8
20260902003058 58 58 0.0 0.0 0.00 0.07 0.07 95 1017.6
20260902002536 58 58 0.0 0.9 0.00 0.07 0.07 94 1017.4
20260902002005 58 58 0.0 0.9 0.00 0.07 0.07 94 1017.5
20260902001440 58 58 0.0 0.0 0.00 0.07 0.07 93 1017.5
20260902001211 58 58 0.0 0.0 0.00 0.07 0.07 93 1017.4
20260902000414 59 58 0.0 0.0 0.00 0.07 0.07 93 1017.3
20260901235905 59 58 0.0 0.0 0.00 0.07 0.07 93 1017.4
20260901235402 59 58 0.0 0.0 0.00 0.07 0.07 93 1017.3
20260901234856 60 58 0.0 0.0 0.00 0.07 0.07 93 1017.2
20260901234352 60 58 0.0 0.0 0.00 0.07 0.07 94 1017.3
20260901233827 60 58 0.0 0.0 0.00 0.07 0.07 93 1017.1
20260901233302 60 58 0.0 0.0 0.00 0.07 0.07 92 1016.9
20260901233028 60 58 0.0 0.0 0.00 0.07 0.07 91 1016.9
20260901232526 61 95 0.0 0.0 0.00 0.07 0.07 91 1016.7
20260901231732 61 95 0.0 0.0 0.00 0.07 0.07 90 1016.7
20260901231203 61 95 0.0 0.0 0.00 0.07 0.07 90 1016.7
20260901230929 62 95 0.0 0.0 0.00 0.07 0.07 90 1016.7
20260901230156 62 95 0.0 0.0 0.00 0.07 0.07 90 1016.6
20260901225653 62 95 0.0 0.0 0.00 0.07 0.07 89 1016.5
20260901225148 62 95 0.0 0.0 0.00 0.07 0.07 90 1016.4
20260901224855 63 95 0.0 0.0 0.00 0.07 0.07 90 1016.3
20260901224109 63 95 0.0 0.0 0.00 0.07 0.07 89 1016.3
20260901223610 63 95 0.0 0.0 0.00 0.07 0.07 89 1016.3
20260901223044 63 95 0.0 0.9 0.00 0.07 0.07 88 1016.1
20260901222520 64 95 0.9 1.7 0.00 0.07 0.07 88 1016.1
20260901221948 64 95 1.7 2.6 0.00 0.07 0.07 88 1016.0
20260901221424 64 105 0.9 2.6 0.00 0.07 0.07 88 1016.0
20260901220856 64 115 0.9 2.6 0.00 0.07 0.07 87 1016.0
20260901220349 64 111 0.0 2.6 0.00 0.07 0.07 87 1015.9
20260901215823 65 128 0.0 0.9 0.00 0.07 0.07 86 1015.9
20260901215257 65 128 0.0 0.9 0.00 0.07 0.07 85 1015.9
20260901214736 65 128 0.0 0.9 0.00 0.07 0.07 85 1015.8
20260901214210 65 128 0.0 2.6 0.00 0.07 0.07 84 1015.8
20260901213647 65 128 0.0 2.6 0.00 0.07 0.07 84 1015.8
20260901213147 66 85 0.9 2.6 0.00 0.07 0.07 83 1015.7
20260901212917 66 161 0.0 2.6 0.00 0.07 0.07 83 1015.5
20260901212146 66 168 0.0 0.9 0.00 0.07 0.07 81 1015.5
20260901211646 67 168 0.0 1.7 0.00 0.07 0.07 80 1015.5
20260901211146 67 168 0.0 1.7 0.00 0.07 0.07 80 1015.4
20260901210916 67 135 0.9 2.6 0.00 0.07 0.07 80 1015.2
20260901210142 67 145 0.0 2.6 0.00 0.07 0.07 79 1015.2
20260901205636 68 172 0.9 4.3 0.00 0.07 0.07 78 1015.2
20260901205127 68 219 0.9 7.8 0.00 0.07 0.07 77 1015.1
20260901204844 68 131 0.9 7.8 0.00 0.07 0.07 77 1015.2
20260901204112 69 137 0.9 2.6 0.00 0.07 0.07 77 1015.1
20260901203842 69 128 1.7 6.1 0.00 0.07 0.07 76 1015.0
20260901203045 69 231 1.7 6.1 0.00 0.07 0.07 76 1014.9
20260901202810 69 164 2.6 6.1 0.00 0.07 0.07 76 1014.9
20260901202032 69 116 1.7 7.0 0.00 0.07 0.07 77 1014.8
20260901201802 69 109 1.7 7.0 0.00 0.07 0.07 79 1014.8
20260901201019 69 267 1.7 5.2 0.00 0.07 0.07 79 1014.6
20260901200518 69 115 1.7 5.2 0.00 0.07 0.07 77 1014.6
20260901200016 69 126 1.7 8.7 0.00 0.07 0.07 77 1014.6
20260901195514 69 261 2.6 8.7 0.00 0.07 0.07 77 1014.5
20260901195008 70 142 1.7 6.1 0.00 0.07 0.07 77 1014.3
20260901194501 71 104 2.6 7.0 0.00 0.07 0.07 76 1014.2
20260901193935 71 110 3.5 7.8 0.00 0.07 0.07 75 1014.2
20260901193406 71 137 3.5 8.7 0.00 0.07 0.07 74 1014.0
20260901192900 71 100 2.6 8.7 0.00 0.07 0.07 74 1014.0
20260901192356 72 99 2.6 7.0 0.00 0.07 0.07 74 1013.9
20260901191853 72 163 1.7 5.2 0.00 0.07 0.07 73 1014.0
20260901191353 72 68 1.7 7.0 0.00 0.07 0.07 72 1013.9
20260901190854 73 249 1.7 7.0 0.00 0.07 0.07 71 1013.8
20260901190328 73 182 2.6 7.0 0.00 0.07 0.07 69 1013.9
20260901185810 73 117 2.6 7.0 0.00 0.07 0.07 71 1013.7
20260901185538 73 276 1.7 7.0 0.00 0.07 0.07 70 1013.7
20260901185418 73 205 2.6 7.0 0.00 0.07 0.07 70 1013.6
20260901184238 73 200 2.6 7.0 0.00 0.07 0.07 70 1013.5
20260901183730 72 258 2.6 7.8 0.00 0.07 0.07 70 1013.4
20260901183203 72 177 3.5 9.6 0.00 0.07 0.07 71 1013.5
20260901182653 72 251 4.3 9.6 0.00 0.07 0.07 71 1013.5
20260901182154 73 247 3.5 9.6 0.00 0.08 0.07 70 1013.4
20260901181649 73 111 2.6 9.6 0.00 0.08 0.07 69 1013.5
20260901181123 74 282 1.7 9.6 0.00 0.08 0.07 73 1013.4
20260901180556 73 270 2.6 7.8 0.00 0.08 0.07 73 1013.4
20260901180030 73 268 3.5 7.8 0.00 0.08 0.07 72 1013.3
20260901175528 72 187 3.5 7.0 0.00 0.08 0.07 75 1013.4
20260901175024 72 217 3.5 7.8 0.00 0.08 0.07 73 1013.4
20260901174754 72 243 3.5 7.8 0.00 0.08 0.07 72 1013.6
20260901173501 72 141 1.7 7.0 0.00 0.09 0.07 75 1013.5
20260901173002 71 195 1.7 4.3 0.00 0.09 0.07 77 1013.4
20260901172441 71 193 1.7 7.0 0.00 0.09 0.07 80 1013.4
20260901172434 71 247 1.7 6.1 0.00 0.09 0.07 76 1013.4
20260901171403 71 250 1.7 7.0 0.00 0.09 0.07 79 1013.4
20260901170846 71 274 1.7 6.1 0.00 0.09 0.07 80 1013.4
20260901170321 71 289 1.7 6.1 0.00 0.09 0.07 81 1013.6
20260901165821 70 220 1.7 6.1 0.00 0.09 0.07 85 1013.6
20260901165322 70 182 1.7 6.1 0.00 0.09 0.07 83 1013.6
20260901165051 70 249 1.7 5.2 0.00 0.09 0.07 84 1013.7
20260901164549 69 260 2.6 5.2 0.00 0.09 0.07 86 1013.7
20260901163818 69 252 1.7 6.1 0.00 0.10 0.07 86 1013.7
20260901163317 69 265 1.7 6.1 0.00 0.10 0.07 89 1013.7
20260901162810 68 270 1.7 5.2 0.00 0.10 0.07 88 1013.8
20260901162308 68 297 0.9 2.6 0.00 0.10 0.07 89 1013.8
20260901161800 67 218 0.9 2.6 0.00 0.10 0.07 89 1013.8
20260901161258 67 251 0.9 3.5 0.00 0.10 0.07 90 1013.8
20260901160727 67 182 0.9 3.5 0.00 0.10 0.07 90 1013.8
20260901160209 66 252 0.9 2.6 0.00 0.10 0.07 90 1013.9
20260901155937 66 237 0.9 2.6 0.00 0.10 0.07 89 1013.9
20260901155202 66 239 0.9 2.6 0.00 0.10 0.07 90 1013.9
20260901154654 66 283 0.9 5.2 0.00 0.10 0.07 91 1013.8
20260901154125 66 245 1.7 5.2 0.00 0.10 0.07 90 1013.8
20260901153623 66 235 1.7 5.2 0.00 0.10 0.07 91 1013.8
20260901153054 67 252 0.9 5.2 0.00 0.10 0.07 90 1013.8
20260901152800 67 139 1.7 4.3 0.00 0.10 0.07 89 1013.7
20260901152013 67 211 2.6 7.8 0.00 0.10 0.07 87 1013.9
20260901151513 67 108 3.5 8.7 0.00 0.10 0.07 86 1013.9
20260901150945 68 172 3.5 8.7 0.00 0.10 0.07 87 1013.8
20260901150445 68 177 1.7 8.7 0.00 0.10 0.07 88 1013.8
20260901145944 67 91 1.7 7.0 0.00 0.10 0.07 89 1013.8
20260901145444 67 155 1.7 7.0 0.00 0.10 0.07 89 1013.7
20260901144918 67 182 1.7 7.0 0.00 0.10 0.07 89 1013.7
20260901144353 67 254 2.6 4.3 0.00 0.10 0.07 90 1013.8
20260901143850 67 235 0.9 7.8 0.00 0.10 0.07 90 1013.8
20260901143322 67 234 0.0 2.6 0.00 0.10 0.07 90 1013.7
20260901143026 67 152 0.0 3.5 0.00 0.10 0.07 90 1013.6
20260901142246 67 124 0.9 3.5 0.00 0.10 0.07 90 1013.7
20260901141723 67 172 1.7 4.3 0.00 0.10 0.07 89 1013.7
20260901141202 67 240 0.9 4.3 0.00 0.10 0.07 91 1013.8
20260901140654 67 270 0.9 3.5 0.00 0.10 0.07 92 1013.6
20260901140156 66 130 0.0 5.2 0.00 0.10 0.07 93 1013.7
20260901135628 66 274 0.0 3.5 0.00 0.10 0.07 93 1013.6
20260901135353 66 162 0.9 3.5 0.04 0.10 0.07 94 1013.6
20260901134601 66 253 1.7 3.5 0.05 0.10 0.07 93 1013.5
20260901134040 66 230 0.9 5.2 0.05 0.10 0.07 93 1013.7
20260901133529 66 242 0.9 5.2 0.05 0.10 0.07 93 1013.6